Weather History for Rogers, AR

Change the Weather History Date:

Wednesday, February 20, 2013

  Actual Average Record
Temperature  
Mean Temperature 30 °F -  
Max Temperature 34 °F 49 °F 71 °F (2005)
Min Temperature 26 °F 32 °F 19 °F (2006)
Degree Days  
Heating Degree Days 35    
Moisture  
Dew Point 22 °F    
Average Humidity 72    
Maximum Humidity 93    
Minimum Humidity 48    
Precipitation  
Precipitation 0.06 in - - ()
Sea Level Pressure  
Sea Level Pressure 30.21 in    
Wind  
Wind Speed 9 mph (East)    
Max Wind Speed 17 mph    
Max Gust Speed 23 mph    
Visibility 8 miles    
Events Fog , Rain , Snow    
Averages and records for this station are not official NWS values.
T = Trace of Precipitation, MM = Missing Value Source: NWS Daily Summary

Daily Weather History Graph

Daily Weather History Graph

Search for Another Location

Airport:

Trip Planner

Search our weather history database for the weather conditions in past years. The results will help you decide how hot, cold, wet, or windy it might be!

Date:

Astronomy

Feb. 20, 2013 Rise Set
Actual Time 6:58 AM CST 6:02 PM CST
Civil Twilight 6:31 AM CST 6:28 PM CST
Nautical Twilight 6:01 AM CST 6:58 PM CST
Astronomical Twilight 5:32 AM CST 7:28 PM CST
Moon 1:29 PM CST 3:13 AM CST
Length of Visible Light 11h 56m
Length of Day
11h 04m
Waxing Gibbous, 76% of the Moon is Illuminated
Feb 20
Waxing Gibbous
Feb 25
Full
Mar 4
Last Quarter
Mar 11
New
Mar 19
First Quarter

Hourly Weather History & Observations

Time (CST) Temp. Windchill Dew Point Humidity Pressure Visibility Wind Dir Wind Speed Gust Speed Precip Events Conditions
12:57 AM 28.9 °F 22.8 °F 17.1 °F 61% 30.30 in 10.0 mi NE 5.8 mph - N/A   Clear
1:57 AM 30.0 °F 26.5 °F 16.0 °F 56% 30.32 in 10.0 mi NE 3.5 mph - N/A   Clear
2:57 AM 30.0 °F 24.1 °F 15.1 °F 54% 30.29 in 10.0 mi East 5.8 mph - N/A   Clear
3:57 AM 30.0 °F 22.4 °F 12.9 °F 49% 30.28 in 10.0 mi East 8.1 mph - N/A   Clear
4:57 AM 30.0 °F 22.4 °F 12.9 °F 49% 30.28 in 10.0 mi ENE 8.1 mph - N/A   Clear
5:57 AM 30.0 °F 20.5 °F 12.9 °F 49% 30.29 in 10.0 mi East 11.5 mph - N/A   Mostly Cloudy
6:57 AM 30.0 °F 21.7 °F 15.1 °F 54% 30.30 in 10.0 mi East 9.2 mph - N/A   Overcast
7:57 AM 30.0 °F 23.2 °F 14.0 °F 51% 30.31 in 10.0 mi ENE 6.9 mph - N/A   Overcast
8:57 AM 30.9 °F 24.3 °F 14.0 °F 50% 30.31 in 10.0 mi East 6.9 mph - N/A   Overcast
9:57 AM 32.0 °F 26.4 °F 16.0 °F 52% 30.29 in 10.0 mi ESE 5.8 mph - N/A   Overcast
10:54 AM 32.0 °F 25.6 °F 14.0 °F 48% 30.29 in 9.0 mi ENE 6.9 mph - 0.00 in Snow Light Snow
10:57 AM 32.0 °F 25.6 °F 16.0 °F 52% 30.33 in 6.0 mi East 6.9 mph - 0.00 in Snow Light Snow
11:05 AM 30.2 °F 22.6 °F 21.2 °F 69% 30.30 in 2.0 mi East 8.1 mph - 0.00 in Snow Light Snow
11:08 AM 30.2 °F 21.9 °F 21.2 °F 69% 30.30 in 1.5 mi ESE 9.2 mph - 0.00 in Snow Light Snow
11:11 AM 28.4 °F 20.4 °F 21.2 °F 74% 30.30 in 1.0 mi ESE 8.1 mph - 0.00 in Snow Light Snow
11:16 AM 28.4 °F 22.2 °F 24.8 °F 86% 30.30 in 0.8 mi East 5.8 mph - 0.00 in Snow Light Snow
11:23 AM 28.4 °F 20.4 °F 24.8 °F 86% 30.30 in 0.5 mi ENE 8.1 mph - 0.00 in Fog , Snow Snow
11:46 AM 26.6 °F 17.5 °F 24.8 °F 93% 30.27 in 0.5 mi East 9.2 mph - 0.00 in Fog , Snow Snow
11:57 AM 27.0 °F 17.3 °F 25.0 °F 92% 30.30 in 0.5 mi East 10.4 mph - 0.00 in Fog , Snow Snow
12:12 PM 28.4 °F 18.5 °F 26.6 °F 93% 30.24 in 0.8 mi East 11.5 mph - 0.00 in Snow Light Snow
12:16 PM 30.2 °F 20.2 °F 26.6 °F 86% 30.24 in 1.0 mi East 12.7 mph - 0.00 in Snow Light Snow
12:18 PM 30.2 °F 20.2 °F 26.6 °F 86% 30.24 in 1.2 mi East 12.7 mph - 0.00 in Snow Light Snow
12:29 PM 30.2 °F 22.6 °F 28.4 °F 93% 30.24 in 4.0 mi East 8.1 mph - 0.00 in Snow Light Snow
12:43 PM 32.0 °F 22.5 °F 28.4 °F 87% 30.23 in 9.0 mi ENE 12.7 mph - 0.02 in Snow Light Snow
12:57 PM 32.0 °F 24.2 °F 28.9 °F 88% 30.25 in 10.0 mi ENE 9.2 mph - 0.02 in   Overcast
1:00 PM 32.0 °F 24.8 °F 28.4 °F 87% 30.21 in 10.0 mi East 8.1 mph - 0.00 in Rain Light Freezing Rain
1:26 PM 33.8 °F 26.4 °F 28.4 °F 81% 30.19 in 10.0 mi ENE 9.2 mph - 0.00 in   Overcast
1:39 PM 33.8 °F 25.3 °F 28.4 °F 81% 30.17 in 10.0 mi ENE 11.5 mph - 0.00 in   Overcast
1:57 PM 34.0 °F 25.5 °F 28.9 °F 82% 30.20 in 10.0 mi East 11.5 mph - 0.00 in   Overcast
2:57 PM 33.1 °F 25.5 °F 27.0 °F 78% 30.18 in 10.0 mi East 9.2 mph - N/A   Overcast
3:42 PM 33.8 °F 26.4 °F 28.4 °F 81% 30.14 in 10.0 mi ENE 9.2 mph - N/A   Overcast
3:57 PM 34.0 °F 26.0 °F 28.0 °F 79% 30.17 in 10.0 mi East 10.4 mph - N/A   Overcast
4:23 PM 33.8 °F 24.8 °F 28.4 °F 81% 30.14 in 10.0 mi East 12.7 mph - N/A   Overcast
4:57 PM 33.1 °F 23.4 °F 27.0 °F 78% 30.15 in 10.0 mi East 13.8 mph - N/A   Overcast
5:51 PM 32.0 °F 22.1 °F 24.8 °F 75% 30.09 in 10.0 mi East 13.8 mph - 0.00 in Rain Light Freezing Rain
5:57 PM 32.0 °F 23.0 °F 23.0 °F 69% 30.13 in 10.0 mi East 11.5 mph - 0.00 in Rain Light Freezing Rain
6:19 PM 32.0 °F 21.6 °F 23.0 °F 69% 30.09 in 10.0 mi East 15.0 mph - 0.00 in   Mostly Cloudy
6:57 PM 32.0 °F 20.8 °F 19.9 °F 61% 30.12 in 10.0 mi East 17.3 mph 21.9 mph 0.00 in   Overcast
7:57 PM 32.0 °F 20.8 °F 19.9 °F 61% 30.10 in 10.0 mi East 17.3 mph - N/A   Overcast
8:57 PM 32.0 °F 21.2 °F 19.9 °F 61% 30.11 in 10.0 mi East 16.1 mph - 0.00 in   Overcast
9:57 PM 30.9 °F 19.8 °F 21.9 °F 69% 30.10 in 9.0 mi East 16.1 mph - 0.00 in Snow Light Snow
10:06 PM 30.2 °F 20.2 °F 21.2 °F 69% 30.07 in 9.0 mi East 12.7 mph - 0.00 in Rain Light Freezing Rain
10:12 PM 30.2 °F 19.8 °F 21.2 °F 69% 30.08 in 10.0 mi East 13.8 mph - 0.00 in Snow Light Snow
10:57 PM 30.0 °F 19.1 °F 23.0 °F 75% 30.09 in 9.0 mi East 15.0 mph 23.0 mph 0.01 in   Overcast
11:01 PM 30.2 °F 19.3 °F 23.0 °F 75% 30.06 in 10.0 mi East 15.0 mph - 0.00 in Rain Light Freezing Rain
11:11 PM 28.4 °F 17.5 °F 23.0 °F 80% 30.05 in 10.0 mi East 13.8 mph 21.9 mph 0.00 in Snow Light Snow
11:57 PM 30.0 °F 19.1 °F 24.1 °F 79% 30.10 in 5.0 mi East 15.0 mph - 0.03 in Snow Light Snow